Tracking 20083 objects as of 12-Dec-2019
HD Live streaming from Space Station
objects crossing your sky now

FENGYUN 1C DEB

Track FENGYUN 1C DEB now!
10-day predictions


NORAD ID: 31323
Int'l Code: 1999-025BQB
Perigee: 832.3 km
Apogee: 887.0 km
Inclination: 99.4 °
Period: 102.0 minutes
Semi major axis: 7230 km
RCS: 0.0017 m2 (small)
Launch date: May 10, 1999
Source: People's Republic of China (PRC)
Launch site: Taiyaun Space Center, China (TSC)

Note: This is SATELLITE DEBRIS
aabbcc
Your satellite tracking list
Your tracking list is empty




NASA's NSSDC Master Catalog

Two Line Element Set (TLE):
1 31323U 99025BQB 19344.93216676  .00000438  00000-0  26357-3 0  9999
2 31323  99.3894 227.8026 0037860 111.9643 248.5556 14.12010851650506
Source of the keplerian elements: AFSPC